Location: Champs
(48.8539°N, 2.6040°E)
Time: 22:27:09
(UTC+00:00)

SPOT 1 Rocket Y - Pass Details

Date: 22 August 2022
Orbit: 784 x 832 km, 98.5° (Epoch: 06 October)

Event Time Altitude Azimuth Distance (km) Brightness Sun altitude
Exits shadow 20:03:41 - 158° (SSE) 2,467 7.6 -11.4°
Reaches altitude 10° 20:03:55 10° 158° (SSE) 2,373 7.6 -11.5°
Maximum altitude 20:09:10 78° 73° (ENE) 832 5.6 -12.2°
Drops below altitude 10° 20:14:31 10° 348° (NNW) 2,421 8.8 -12.9°
Sets 20:16:53 0° 347° (NNW) 3,365 9.6 -13.2°
